Theta_e
278 278 278 279 279 280 281 284 285 287 288 290 292 295 299 300 297 311 316 318 321 319 323 326 325 326 325 324 323 322 324 322 320 313 311 310 308 308 307 306 304 303 305
277 278 278 278 278 279 281 283 285 287 288 290 291 293 298 300 302 309 315 315 318 321 322 324 325 324 324 324 323 321 320 321 320 315 310 307 306 306 305 304 303 303 304
277 277 278 278 278 279 282 283 284 286 288 290 292 295 295 297 296 308 311 314 315 318 321 322 323 322 321 322 322 319 317 316 315 315 311 305 305 304 302 303 304 305 307
277 277 278 280 280 281 282 283 284 286 288 290 295 297 297 296 296 304 310 315 315 318 321 322 321 320 321 321 319 317 316 314 312 311 309 305 305 305 306 308 308 309 302
277 279 280 282 282 283 285 285 287 286 288 292 296 297 297 298 301 307 310 311 315 318 321 321 321 321 321 320 318 317 314 311 308 308 306 305 307 308 309 308 309 305 302
278 279 283 287 288 287 287 288 287 287 290 294 297 298 296 299 301 304 311 313 315 316 320 318 319 318 318 317 316 314 312 310 307 307 307 308 308 309 309 309 305 301 301
278 281 285 291 294 293 290 289 289 290 292 295 299 300 297 299 301 307 312 313 315 316 318 318 317 317 316 315 312 310 310 309 309 309 309 309 309 309 310 308 306 303 303
278 281 285 289 294 293 292 291 290 292 293 296 299 301 301 300 301 308 310 314 315 315 316 319 318 316 314 313 310 308 308 309 309 306 308 310 311 311 307 307 304 301 300
281 281 283 286 290 293 294 294 295 296 294 298 300 300 300 300 303 308 311 312 312 313 314 316 314 312 312 309 309 309 308 305 304 305 306 308 306 306 308 307 303 302 300
281 281 282 284 287 290 293 295 297 298 298 297 299 299 300 305 306 308 309 309 308 311 308 308 310 311 310 307 308 308 306 303 302 303 303 303 303 305 306 307 308 305 301
284 285 283 284 284 286 289 291 291 294 295 295 298 297 299 304 304 306 307 308 307 309 305 305 306 306 306 305 306 304 301 301 302 303 304 305 305 306 306 306 307 307 306
286 286 285 284 285 285 287 286 287 290 291 290 292 292 294 298 303 304 306 308 307 307 307 308 307 306 305 305 305 303 303 303 302 303 304 304 304 304 304 305 304 306 304
282 283 286 287 285 285 286 288 289 287 287 287 290 292 293 297 300 302 304 305 306 306 306 307 308 306 303 302 303 304 305 305 305 305 304 304 304 305 303 304 302 303 301
282 282 282 284 286 285 284 284 285 286 288 287 289 291 291 295 298 299 301 304 304 304 304 304 304 304 302 300 301 303 305 306 306 306 303 302 301 301 301 302 302 300 300
282 282 281 282 282 283 282 282 283 284 287 287 286 289 290 291 293 297 298 299 301 302 302 300 300 300 302 299 299 301 302 302 302 303 303 302 301 301 301 300 300 299 300
282 282 282 282 281 281 283 283 281 284 284 285 287 288 287 289 293 296 297 296 297 299 299 298 298 299 299 299 299 300 300 300 300 300 300 301 300 300 299 299 299 299 300
282 282 282 282 282 283 282 282 282 284 285 286 286 287 287 288 289 291 292 293 294 296 297 296 295 296 297 297 297 297 298 298 299 299 299 300 300 299 299 298 297 298 298
282 282 282 282 282 282 283 283 283 283 282 283 284 285 286 288 289 290 291 292 293 293 293 292 292 292 292 294 295 296 296 296 297 297 297 298 298 298 297 297 297 297 297
282 282 281 282 282 282 282 283 283 283 283 283 283 283 284 285 287 288 289 290 289 289 290 291 291 291 292 292 293 293 293 294 295 296 296 297 297 296 296 296 296 296 295
282 282 282 282 282 282 282 282 282 282 283 283 283 282 282 284 285 285 286 287 286 286 287 288 289 289 289 290 291 291 292 292 292 293 293 294 294 294 295 295 294 294 293
280 281 281 282 282 281 281 281 281 282 282 282 282 282 282 282 283 283 284 285 286 286 286 286 287 287 288 288 289 289 290 290 291 291 291 291 291 292 292 292 292 291 291
280 280 280 280 281 281 281 281 281 281 281 281 282 282 282 281 281 282 282 283 284 284 285 286 286 286 286 287 288 288 288 288 289 289 289 289 290 290 290 290 290 290 290
278 279 279 280 280 280 280 281 280 280 280 280 280 280 281 281 281 281 281 281 282 283 283 284 285 285 285 286 286 287 288 288 288 288 288 288 288 288 288 289 289 289 289
278 278 278 279 279 279 279 279 279 280 280 280 280 280 280 280 280 280 280 280 280 281 282 283 283 284 284 284 285 285 286 287 287 287 287 288 288 288 288 287 288 288 288
278 278 278 277 277 277 278 278 278 278 279 279 279 280 280 280 280 280 280 279 280 280 281 282 282 283 283 283 284 284 285 285 286 286 287 287 287 287 287 287 287 287 287
277 277 277 277 277 276 276 276 277 277 277 278 278 278 279 279 279 280 280 280 279 279 280 280 281 282 282 283 283 283 284 284 285 286 286 286 286 286 286 286 286 286 286
Wind_Speed
37 39 41 43 42 39 42 46 44 42 43 42 44 45 35 32 35 42 46 48 52 46 46 44 48 47 48 43 43 45 41 40 42 46 49 47 51 46 38 36 33 32 29
35 37 40 41 38 42 47 46 45 46 42 44 43 48 46 40 32 43 49 47 51 51 45 49 48 48 48 45 45 45 44 44 47 42 44 48 51 48 41 37 34 30 26
33 34 38 41 40 43 45 44 43 45 46 42 44 45 50 48 42 43 51 49 51 51 44 49 52 47 47 46 46 45 45 43 46 42 43 46 51 45 41 38 36 32 28
36 35 35 36 39 42 42 43 42 41 41 44 40 45 41 41 41 44 50 50 50 51 48 48 45 47 49 47 45 42 39 40 42 38 43 49 48 48 43 43 38 36 34
34 32 31 31 34 36 39 40 39 39 41 48 38 45 40 41 42 48 54 49 52 53 48 49 46 45 45 41 42 40 37 40 42 36 47 52 48 50 44 41 39 39 36
38 39 28 21 28 33 35 35 35 38 38 51 39 38 46 41 44 49 53 54 53 51 50 47 45 43 42 38 34 33 37 43 45 45 52 50 51 47 47 44 42 43 38
43 43 34 7 15 21 24 27 32 37 40 51 38 36 44 45 46 52 51 56 50 49 47 47 44 44 41 39 36 40 40 39 37 45 46 43 42 42 44 42 44 46 46
48 49 43 25 9 13 20 24 29 28 36 47 36 35 42 45 42 51 48 54 48 50 50 45 44 46 41 39 39 47 46 40 36 32 26 24 23 29 31 35 42 43 39
53 54 47 41 32 23 21 19 17 18 28 29 33 34 36 41 57 53 55 54 49 49 49 45 43 42 40 42 47 47 46 41 35 27 21 23 18 16 17 24 32 33 31
52 52 49 48 44 35 26 21 22 25 28 21 25 34 38 50 51 52 49 48 44 41 40 37 33 33 38 47 49 52 50 45 42 32 27 27 23 20 20 21 26 32 34
51 51 54 51 50 46 44 42 41 39 33 32 27 34 45 47 43 39 39 39 39 37 36 33 29 28 32 40 51 51 49 45 38 32 30 30 27 24 29 28 28 26 29
48 50 54 53 55 51 51 46 43 38 44 43 49 48 44 44 43 42 41 41 39 37 32 29 26 24 26 33 46 48 45 41 39 38 38 37 38 39 31 27 28 26 25
45 49 50 52 56 58 57 53 54 47 47 41 47 55 50 49 46 44 43 41 38 36 31 29 27 25 25 26 29 33 35 37 34 31 33 34 36 37 35 33 29 28 26
42 45 48 50 51 54 56 54 50 49 50 51 54 50 46 54 52 46 43 40 36 33 30 31 31 28 27 26 26 25 23 22 24 24 26 29 30 29 30 29 28 28 25
40 41 44 45 46 48 49 49 50 50 50 51 44 48 48 47 42 41 42 41 41 38 35 33 33 30 28 22 23 22 19 20 22 23 26 29 28 26 26 25 24 25 25
39 40 39 40 41 42 44 45 43 46 46 45 44 45 43 41 37 35 33 32 32 30 33 33 32 30 28 24 23 22 20 19 20 21 23 26 26 27 27 26 24 23 23
34 35 36 37 39 39 40 41 43 42 41 44 44 42 39 37 35 35 33 31 28 24 29 27 26 23 22 20 19 18 19 18 18 19 21 24 25 25 26 27 26 24 23
28 31 33 33 34 35 36 36 36 38 40 41 38 37 34 33 32 30 28 28 30 29 28 26 24 21 19 18 16 15 14 16 16 17 18 20 21 24 25 26 25 23 22
23 26 28 28 29 30 30 31 31 32 33 32 31 34 33 29 27 27 26 30 31 30 27 26 23 20 17 15 14 14 14 14 13 13 15 16 17 19 22 23 23 22 22
18 20 21 22 22 24 26 27 27 26 25 26 27 28 24 20 25 26 26 27 27 26 24 22 20 19 17 16 14 12 11 12 13 13 13 15 16 18 20 21 22 22 22
13 14 15 16 17 19 19 20 21 20 20 20 21 20 19 19 21 21 21 21 20 19 18 17 17 16 15 14 13 12 12 11 12 12 11 12 14 16 17 18 21 22 22
9 10 11 11 12 13 14 15 15 15 15 14 13 13 13 13 13 14 15 15 14 12 12 12 12 12 11 10 10 10 10 10 9 10 11 11 12 14 16 17 19 22 23
5 5 6 8 8 9 9 10 10 10 10 10 9 8 7 7 7 7 7 7 7 7 8 8 9 8 8 7 7 7 7 8 8 8 7 10 11 13 15 17 21 23 24
7 5 5 5 5 5 4 4 4 4 4 4 4 4 3 3 3 3 2 2 3 3 3 4 4 4 5 4 5 4 5 8 9 9 9 8 10 12 14 17 20 23 24
9 8 6 4 3 4 5 3 3 3 1 1 1 1 1 2 2 3 3 4 4 3 2 1 1 1 1 2 3 3 4 6 8 10 11 11 10 12 14 17 21 24 25
9 9 9 8 7 5 4 3 4 4 5 5 5 5 5 5 6 7 7 7 7 6 5 4 2 2 2 2 3 5 6 7 9 11 12 12 13 15 16 19 23 25 25
Wind_Direction
296 289 281 275 269 259 254 250 245 241 240 240 236 230 232 238 231 221 219 218 220 219 215 216 212 216 215 212 216 213 213 219 221 215 214 210 204 201 203 202 205 212 214
299 289 278 273 265 259 254 249 244 234 235 236 228 227 227 227 229 222 211 218 220 212 213 219 217 214 213 213 211 217 215 216 220 215 209 206 204 200 199 199 200 203 211
310 295 283 275 266 257 252 246 241 237 230 231 221 225 228 226 232 220 220 218 221 218 218 213 214 211 213 210 212 214 211 215 220 224 208 201 195 195 194 197 201 203 209
319 304 289 275 264 254 249 243 237 230 225 219 222 224 226 226 226 222 220 214 220 217 216 215 211 211 210 209 210 211 213 214 218 215 207 193 191 194 200 204 203 205 212
331 329 313 290 264 250 242 235 229 223 221 210 218 221 222 224 224 218 217 218 217 218 212 208 211 212 213 213 210 210 209 209 205 197 195 191 190 194 199 201 206 210 212
352 342 339 289 255 240 231 226 221 217 219 205 213 218 219 222 225 218 215 217 217 215 209 208 211 209 209 209 213 216 204 196 196 198 201 195 195 199 204 209 207 204 207
2 2 12 322 244 224 214 214 211 210 207 205 213 218 219 221 221 214 214 219 216 213 205 206 203 205 206 204 206 199 194 197 200 195 199 199 200 207 214 214 214 209 210
9 16 29 49 167 183 197 205 207 203 210 206 214 221 219 223 219 215 215 215 215 209 203 209 206 204 201 202 196 198 199 203 201 198 204 191 192 206 199 211 213 211 211
26 24 28 42 81 130 166 182 178 188 198 211 216 220 217 216 213 218 209 206 202 199 198 204 203 197 195 196 190 188 184 185 188 180 185 192 181 192 196 199 207 207 211
33 30 33 47 68 86 111 132 161 179 186 201 190 198 204 204 200 208 202 194 188 185 189 190 195 195 197 193 191 184 183 184 184 176 168 172 170 182 206 213 214 210 215
38 48 47 53 57 72 91 98 105 124 128 129 160 160 171 176 183 176 176 171 171 169 178 175 177 190 197 194 194 186 184 182 183 189 190 192 194 201 203 207 213 220 220
40 47 53 57 61 67 78 81 85 104 106 103 106 107 119 140 145 147 146 141 146 150 151 151 155 165 178 191 198 197 199 202 205 214 218 220 222 223 220 212 206 209 210
43 49 55 60 60 64 64 76 77 75 79 79 88 90 94 112 120 122 125 130 133 129 133 139 146 157 162 173 184 190 195 205 210 212 213 213 212 211 205 201 202 202 195
46 49 52 58 64 64 63 59 61 70 77 70 78 85 87 97 105 111 117 124 126 124 126 135 133 137 144 152 155 162 173 181 189 189 192 195 195 192 192 198 201 201 199
48 49 55 57 58 62 66 59 61 60 71 77 72 81 81 83 94 104 107 109 114 116 118 119 123 130 130 137 138 140 149 160 174 181 185 186 185 186 188 194 197 192 193
42 47 49 56 61 64 65 67 71 79 72 72 77 83 82 86 90 94 97 103 111 120 121 117 114 113 117 125 130 137 144 152 160 166 176 178 177 176 176 177 183 183 179
35 42 45 49 52 55 62 67 67 65 68 74 76 80 82 84 87 93 99 102 106 118 112 117 120 123 122 123 122 125 133 141 149 158 165 169 171 171 174 173 176 178 180
31 37 41 43 48 51 53 57 63 67 69 70 71 76 75 81 84 87 90 97 97 96 96 100 105 115 123 133 136 141 142 139 143 151 164 167 171 176 177 180 180 183 184
29 34 36 38 42 49 52 53 54 55 60 67 73 70 67 73 80 89 96 95 95 93 94 93 96 99 106 118 132 147 154 158 164 165 164 169 174 184 186 187 189 190 189
30 28 31 39 42 43 45 51 55 56 58 59 63 67 67 73 75 75 79 85 89 92 93 96 98 103 105 108 116 128 140 153 159 165 173 178 182 189 194 196 196 194 189
32 32 33 28 38 47 51 52 55 54 54 56 58 62 64 66 73 77 79 81 85 91 97 101 102 102 105 106 110 117 130 144 151 158 168 177 181 185 191 195 197 194 190
26 25 23 35 37 35 47 55 56 57 61 62 63 64 63 63 66 69 73 79 85 89 94 98 100 99 102 113 120 123 127 136 145 156 166 177 183 183 189 190 190 189 187
25 28 28 23 30 31 33 36 46 60 63 66 70 69 72 73 77 81 84 85 86 84 85 95 111 113 109 106 112 125 137 141 149 155 172 177 180 187 190 192 190 189 188
340 359 7 4 7 10 22 28 34 32 35 56 66 74 88 103 112 123 133 135 131 125 101 84 88 97 107 118 117 125 162 172 176 173 175 181 186 188 192 193 192 191 189
319 323 328 334 331 326 325 326 319 316 309 287 269 242 232 221 212 215 222 222 222 223 220 187 96 112 168 197 197 195 200 202 197 194 187 186 190 196 199 198 195 193 192
306 307 307 306 306 299 282 263 255 245 239 238 238 235 232 229 233 234 231 232 234 231 227 231 247 282 294 269 239 224 221 216 208 205 200 198 198 196 198 199 197 193 190